Terminal Aerodrome Forecast
Issued by NWS Tampa Bay Area, FL

Home | Current Version | Previous Version | Text Only | Print | Product List | Glossary On
Versions: 1 2 3 4 5 6 7 8 9 10 11 12 13 14 15 16 17 18 19 20 21 22 23 24 25 26 27 28
000
FTUS42 KTBW 250302 AAA
TAFTPA
TAF AMD
KTPA 250302Z 2503/2524 VRB03KT P6SM SCT035 BKN100
     FM251400 15005KT P6SM SCT030 BKN100
     FM251800 24006KT P6SM VCTS BKN040CB BKN100
     FM252100 29009KT P6SM VCTS SCT040CB BKN100=

USA.gov is the U.S. government's official web portal to all federal, state and local government web resources and services.